Stations météo

Publicité
Agen, France (7524): Température de l'air & dewpoint: 15.07.2019 17:00:00 - 21.07.2019 17:00:00 (CEST)Agen, France (7524): Température de l'air 5cm: 15.07.2019 17:00:00 - 21.07.2019 17:00:00 (CEST)Agen, France (7524): Température de l'air -20cm & Température de l'air -100cm: 15.07.2019 17:00:00 - 21.07.2019 17:00:00 (CEST)Agen, France (7524): Vitesse du vent & gusts: 15.07.2019 17:00:00 - 21.07.2019 17:00:00 (CEST)Agen, France (7524): Direction du vent: 15.07.2019 17:00:00 - 21.07.2019 17:00:00 (CEST)Agen, France (7524): reduced air pressure: 15.07.2019 17:00:00 - 21.07.2019 17:00:00 (CEST)Agen, France (7524): visibility: 15.07.2019 17:00:00 - 21.07.2019 17:00:00 (CEST)Agen, France (7524): Ensoleillement: 15.07.2019 17:00:00 - 21.07.2019 17:00:00 (CEST)Agen, France (7524): Quantités de précipitations: 15.07.2019 17:00:00 - 21.07.2019 17:00:00 (CEST)
Date & Time tt [°C] td [°C] tt 5cm [°C] tt -20cm [°C] tt -100cm [°C] ff [km/h] ff [knt] fx [km/h] fx [knt] dd ppp [hPa] vv [km] sd [min] rr [mm]
21.07.2019 17:00:00 31,8 18,0 45,7 21,5 18,8 8 4 19 10 N 1020,0 19 60 0,0
21.07.2019 16:00:00 31,2 18,2 47,9 21,4 18,8 8 5 25 13 N 1020,4 42 60 0,0
21.07.2019 15:00:00 30,7 17,8 45,4 21,3 18,8 7 4 25 14 NNE 1020,9 29 57 0,0
21.07.2019 14:00:00 28,7 17,2 45,0 21,2 18,7 11 6 31 17 NNW 1021,5 26 51 0,0
21.07.2019 13:00:00 27,9 17,1 41,5 21,2 18,8 9 5 25 13 NNW 1021,6 20 60 0,0
21.07.2019 12:00:00 26,8 17,3 33,8 21,2 18,8 10 6 23 12 N 1021,9 19 56 0,0
21.07.2019 11:00:00 24,7 17,7 28,1 21,2 18,8 10 5 19 10 NNW 1021,9 27 7 0,0
21.07.2019 10:00:00 23,2 18,1 23,6 21,2 18,8 8 5 18 10 NNW 1021,9 55 27 0,0
21.07.2019 09:00:00 21,8 17,8 21,5 21,2 18,8 10 5 16 8 NNW 1021,9 40 5 0,0
21.07.2019 08:00:00 21,1 17,7 20,6 21,3 18,8 9 5 14 8 NW 1021,5 44 0 0,0
21.07.2019 07:00:00 21,0 17,6 20,4 21,3 18,8 7 4 13 7 NW 1021,1 46 0 0,0
21.07.2019 06:00:00 21,1 17,3 20,2 21,4 18,8 8 4 11 6 WNW 1020,8 18 0 0,0
21.07.2019 05:00:00 21,1 17,5 19,5 21,4 18,8 6 3 14 7 NW 1020,7 47 0 0,0
21.07.2019 04:00:00 21,2 17,4 19,0 21,5 18,8 9 5 14 7 NNW 1020,5 48 0 0,0
21.07.2019 03:00:00 21,3 17,3 19,8 21,5 18,7 9 5 19 10 NW 1020,8 46 0 0,0
21.07.2019 02:00:00 21,7 17,3 20,0 21,5 18,7 11 6 21 11 NNW 1021,0 47 0 0,0
21.07.2019 01:00:00 22,5 17,2 21,0 21,5 18,8 14 8 31 17 NW 1020,6 50 0 0,0
21.07.2019 00:00:00 23,7 17,4 20,9 21,5 18,8 16 9 28 15 NW 1019,7 49 0 0,0
20.07.2019 23:00:00 24,3 17,3 21,7 21,5 18,7 12 7 15 8 WNW 1018,9 43 0 0,0
20.07.2019 22:00:00 26,1 16,9 23,5 21,5 18,7 10 5 24 13 WNW 1017,9 1,0 0 0,0
20.07.2019 21:00:00 28,1 17,3 25,6 21,4 18,7 13 7 21 11 NW 1017,1 51 0 0,0
20.07.2019 20:00:00 28,9 17,1 28,4 21,3 18,8 10 5 23 12 NNW 1016,4 47 11 0,0
20.07.2019 19:00:00 30,7 17,0 32,5 21,2 18,7 8 5 24 13 WNW 1016,1 14 60 0,0
20.07.2019 18:00:00 30,7 16,3 36,1 21,0 18,7 13 7 23 13 NW 1016,0 29 60 0,0
20.07.2019 17:00:00 30,8 16,4 40,6 20,9 18,7 13 7 27 15 W 1016,0 20 60 0,0
20.07.2019 16:00:00 30,2 17,3 44,2 20,8 18,7 12 6 25 13 W 1016,0 19 60 0,0
20.07.2019 15:00:00 28,8 18,0 41,9 20,7 18,7 9 5 22 12 NNE 1016,0 23 44 0,0
20.07.2019 14:00:00 28,4 17,6 43,1 20,6 18,7 9 5 25 14 NW 1016,1 17 50 0,0
20.07.2019 13:00:00 27,9 17,4 37,4 20,6 18,7 5 3 19 10 ENE 1016,2 17 57 0,0
20.07.2019 12:00:00 25,9 17,5 32,8 20,5 18,7 7 4 19 10 WSW 1016,2 20 38 0,0
20.07.2019 11:00:00 24,8 17,3 23,5 20,6 18,7 6 4 16 9 SSW 1016,0 24 51 0,0
20.07.2019 10:00:00 22,3 17,0 20,6 20,6 18,7 7 4 16 9 WSW 1015,7 37 37 0,0
20.07.2019 09:00:00 20,2 16,6 18,4 20,7 18,7 10 5 15 8 SSE 1015,0 30 3 0,0
20.07.2019 08:00:00 18,9 16,3 16,2 20,7 18,7 9 5 21 12 WNW 1014,4 27 0 0,0
20.07.2019 07:00:00 18,5 15,7 16,0 20,8 18,7 6 4 13 7 SE 1013,0 34 0 0,0
20.07.2019 06:00:00 19,0 16,0 16,2 20,9 18,7 13 7 20 11 E 1012,2 34 0 0,2
20.07.2019 05:00:00 17,5 15,1 14,4 20,9 18,7 3 2 9 5 WNW 1012,3 19 0 0,0
20.07.2019 04:00:00 18,0 14,9 14,5 21,0 18,7 2 1 8 4 NW 1012,4 39 0 0,0
20.07.2019 03:00:00 18,0 14,7 14,4 21,1 18,7 8 4 11 6 ESE 1012,1 39 0 0,0
20.07.2019 02:00:00 18,7 15,4 14,1 21,2 18,7 6 4 11 6 SE 1012,2 40 0 0,0
20.07.2019 01:00:00 18,7 14,0 14,3 21,2 18,7 6 3 9 5 ESE 1012,3 47 0 0,0
20.07.2019 00:00:00 19,2 12,9 15,3 21,3 18,7 4 2 6 3 ESE 1012,2 40 0 0,0
19.07.2019 23:00:00 21,7 12,8 16,3 21,3 18,7 3 1 4 2 ENE 1012,5 35 0 0,0
19.07.2019 22:00:00 25,7 12,2 18,8 21,3 18,7 2 1 11 6 S 1012,0 1,2 11 0,0
19.07.2019 21:00:00 28,1 12,4 24,6 21,1 18,7 9 5 15 8 E 1011,9 54 60 0,0
19.07.2019 20:00:00 30,5 12,9 29,9 21,0 18,7 10 5 21 11 E 1012,2 60 60 0,0
19.07.2019 19:00:00 30,9 13,2 34,4 20,9 18,7 8 5 20 11 E 1012,5 27 60 0,0
19.07.2019 18:00:00 30,8 13,1 39,6 20,8 18,7 6 3 21 11 E 1013,3 27 60 0,0
19.07.2019 17:00:00 30,5 13,7 44,2 20,7 18,7 9 5 23 12 SE 1013,8 51 60 0,0
19.07.2019 16:00:00 29,8 14,4 48,4 20,5 18,7 11 6 22 12 ESE 1014,6 53 60 0,0
19.07.2019 15:00:00 28,5 14,3 49,5 20,4 18,7 7 4 22 12 ENE 1015,5 56 60 0,0
19.07.2019 14:00:00 27,3 14,3 49,0 20,4 18,7 8 5 25 13 ESE 1016,2 19 60 0,0
19.07.2019 13:00:00 25,8 14,3 42,0 20,4 18,7 7 4 16 9 NW 1016,8 18 60 0,0
19.07.2019 12:00:00 25,2 14,6 34,0 20,4 18,7 6 3 17 9 SW 1017,5 18 60 0,0
19.07.2019 11:00:00 23,4 14,7 26,5 20,4 18,7 5 3 13 7 NNW 1018,1 60 54 0,0
19.07.2019 10:00:00 21,8 15,4 19,8 20,5 18,7 5 3 10 6 NNW 1018,4 31 60 0,0
19.07.2019 09:00:00 19,3 15,4 15,8 20,5 18,7 3 2 7 4 WNW 1018,6 32 60 0,0
19.07.2019 08:00:00 16,9 15,1 12,0 20,6 18,7 4 2 6 3 NW 1018,7 15 60 0,0
19.07.2019 07:00:00 14,7 13,4 11,6 20,7 18,7 0 0 5 3 N 1018,6 18 5 0,0
19.07.2019 06:00:00 14,4 12,9 12,0 20,8 18,7 4 2 7 4 WNW 1018,7 24 0 0,0
19.07.2019 05:00:00 15,2 13,0 12,3 20,8 18,7 5 3 8 4 W 1018,5 28 0 0,0
19.07.2019 04:00:00 17,2 14,3 13,3 20,9 18,7 6 3 10 6 W 1018,5 30 0 0,0
19.07.2019 03:00:00 17,6 14,1 13,4 21,0 18,7 6 4 9 5 W 1018,6 37 0 0,0
19.07.2019 02:00:00 17,5 13,4 14,4 21,0 18,7 7 4 14 8 WNW 1018,8 39 0 0,0
19.07.2019 01:00:00 18,8 13,4 17,0 21,0 18,7 11 6 22 12 WNW 1018,6 43 0 0,0
19.07.2019 00:00:00 20,5 13,0 18,5 21,1 18,7 14 7 22 12 WNW 1018,4 46 0 0,0
18.07.2019 23:00:00 22,1 14,2 19,7 21,1 18,7 12 7 22 12 WSW 1017,9 42 0 0,0
18.07.2019 22:00:00 23,3 14,0 20,8 21,1 18,7 13 7 24 13 WSW 1017,4 10 11 0,0
18.07.2019 21:00:00 25,0 12,6 23,0 21,0 18,7 10 5 21 11 W 1016,9 59 52 0,0
18.07.2019 20:00:00 26,3 12,4 26,3 20,9 18,7 13 7 24 13 NW 1016,5 46 50 0,0
18.07.2019 19:00:00 27,0 12,6 29,4 20,9 18,7 11 6 33 18 NW 1016,3 38 52 0,0
18.07.2019 18:00:00 27,4 11,8 33,4 20,8 18,7 12 7 33 18 NW 1016,6 20 55 0,0
18.07.2019 17:00:00 27,1 11,9 39,1 20,7 18,7 6 4 32 17 W 1017,0 19 57 0,0
18.07.2019 16:00:00 26,2 11,5 39,8 20,6 18,7 17 9 30 16 NNW 1017,4 33 46 0,0
18.07.2019 15:00:00 26,1 11,8 40,9 20,5 18,7 11 6 30 16 W 1017,7 19 46 0,0
18.07.2019 14:00:00 25,5 11,3 36,6 20,5 18,7 11 6 30 16 WNW 1018,1 19 48 0,0
18.07.2019 13:00:00 24,8 11,7 32,9 20,5 18,7 9 5 26 14 W 1018,3 58 43 0,0
18.07.2019 12:00:00 22,9 11,9 25,4 20,5 18,7 13 7 24 13 NW 1018,6 60 18 0,0
18.07.2019 11:00:00 22,3 12,3 24,5 20,6 18,7 10 5 23 12 W 1018,4 55 36 0,0
18.07.2019 10:00:00 21,0 13,2 20,8 20,6 18,7 12 7 21 11 NW 1018,8 37 60 0,0
18.07.2019 09:00:00 19,5 14,7 17,3 20,6 18,7 8 4 14 8 WNW 1018,7 20 29 0,0
18.07.2019 08:00:00 17,2 14,5 15,0 20,7 18,7 5 3 11 6 W 1018,7 25 20 0,0
18.07.2019 07:00:00 16,5 13,8 14,2 20,8 18,7 6 3 11 6 W 1018,5 26 0 0,0
18.07.2019 06:00:00 16,8 14,3 14,4 20,8 18,7 8 4 16 9 WSW 1018,2 16 0 0,0
18.07.2019 05:00:00 18,0 14,5 18,0 20,9 18,7 9 5 17 9 W 1017,9 29 0 0,0
18.07.2019 04:00:00 18,0 14,9 17,3 20,9 18,7 10 5 16 8 W 1017,9 29 0 0,0
18.07.2019 03:00:00 18,4 14,7 18,8 21,0 18,7 13 7 24 13 WNW 1017,8 30 0 0,0
18.07.2019 02:00:00 19,2 14,9 18,9 21,1 18,7 16 8 26 14 WNW 1017,7 32 0 0,0
18.07.2019 01:00:00 19,4 14,0 19,0 21,1 18,7 17 9 27 15 WNW 1017,4 37 0 0,0
18.07.2019 00:00:00 20,7 12,1 19,2 21,1 18,7 16 9 28 15 WNW 1017,0 55 0 0,0
17.07.2019 23:00:00 21,5 11,2 19,7 21,2 18,7 13 7 28 15 WNW 1016,8 59 0 0,0
17.07.2019 22:00:00 23,6 11,6 21,3 21,1 18,7 18 10 38 21 WNW 1015,8 56 13 0,0
17.07.2019 21:00:00 26,2 12,6 23,7 21,1 18,7 17 9 36 20 NW 1014,8 38 57 0,0
17.07.2019 20:00:00 28,8 13,1 26,6 21,0 18,7 18 10 32 17 NW 1014,0 40 56 0,0
17.07.2019 19:00:00 29,6 13,4 28,5 20,9 18,7 18 10 34 19 WNW 1013,8 19 49 0,0
17.07.2019 18:00:00 30,2 12,1 33,1 20,8 18,7 17 9 37 20 NW 1013,8 49 57 0,0
17.07.2019 17:00:00 30,6 12,9 35,6 20,7 18,7 16 9 29 16 WNW 1014,3 18 44 0,0
17.07.2019 16:00:00 30,3 13,1 40,0 20,5 18,7 16 8 31 17 NNW 1014,5 51 53 0,0
17.07.2019 15:00:00 30,1 11,1 43,8 20,4 18,7 11 6 28 15 NW 1014,9 32 60 0,0
17.07.2019 14:00:00 28,9 13,6 36,2 20,4 18,7 14 8 24 13 NW 1015,3 33 38 0,0
17.07.2019 13:00:00 27,5 13,8 40,5 20,4 18,7 14 8 23 12 NNW 1015,7 48 55 0,0
17.07.2019 12:00:00 27,1 14,5 33,4 20,3 18,7 7 4 19 11 WSW 1015,7 55 60 0,0
17.07.2019 11:00:00 25,0 14,5 25,7 20,3 18,7 6 4 16 9 WNW 1015,7 53 57 0,0
17.07.2019 10:00:00 22,3 13,9 20,0 20,4 18,7 6 4 13 7 W 1015,9 25 57 0,0
17.07.2019 09:00:00 19,1 13,5 17,7 20,5 18,7 4 2 13 7 WNW 1015,8 32 37 0,0
17.07.2019 08:00:00 17,7 13,4 15,5 20,5 18,7 6 3 18 10 WNW 1015,9 29 39 0,0
17.07.2019 07:00:00 16,7 13,2 12,7 20,6 18,7 11 6 21 11 WSW 1016,1 27 0 0,0
17.07.2019 06:00:00 16,4 12,4 12,7 20,7 18,7 5 3 18 10 W 1015,6 17 0 0,0
17.07.2019 05:00:00 18,3 12,7 13,3 20,8 18,7 10 5 18 10 WSW 1015,4 32 0 0,0
17.07.2019 04:00:00 18,3 12,3 13,2 20,8 18,7 5 3 12 6 W 1015,2 42 0 0,0
17.07.2019 03:00:00 18,0 12,4 13,2 20,9 18,7 6 3 10 5 W 1015,3 36 0 0,0
17.07.2019 02:00:00 17,9 12,1 13,6 21,0 18,7 6 4 9 5 NW 1015,7 39 0 0,0
17.07.2019 01:00:00 19,5 12,0 14,1 21,0 18,7 6 4 13 7 WNW 1015,8 19 0 0,0
17.07.2019 00:00:00 20,8 12,5 14,3 21,0 18,7 6 4 12 6 W 1015,8 48 0 0,0
16.07.2019 23:00:00 20,2 11,4 15,1 21,1 18,7 0 0 6 3 N 1015,7 45 0 0,0
16.07.2019 22:00:00 25,0 10,8 17,5 21,0 18,7 5 3 10 6 WSW 1015,1 0,4 13 0,0
16.07.2019 21:00:00 27,2 10,4 23,5 20,9 18,7 9 5 19 10 WNW 1015,2 52 60 0,0
16.07.2019 20:00:00 29,5 9,1 27,9 20,9 18,7 8 4 23 12 NW 1014,7 20 60 0,0
16.07.2019 19:00:00 30,0 7,8 31,9 20,8 18,7 10 6 28 15 NNW 1014,5 59 60 0,0
16.07.2019 18:00:00 30,6 9,5 36,1 20,6 18,7 11 6 33 18 NW 1014,9 18 60 0,0
16.07.2019 17:00:00 30,3 9,8 40,1 20,5 18,7 14 7 26 14 WNW 1015,4 48 60 0,0
16.07.2019 16:00:00 30,0 9,5 46,3 20,4 18,7 12 7 28 15 NNW 1015,7 53 60 0,0
16.07.2019 15:00:00 29,5 9,6 46,9 20,3 18,7 11 6 22 12 N 1016,0 60 51 0,0
16.07.2019 14:00:00 28,8 10,9 47,3 20,2 18,7 4 2 24 13 NE 1016,3 19 60 0,0
16.07.2019 13:00:00 26,9 12,2 34,6 20,2 18,7 7 4 20 11 NNW 1016,7 20 50 0,0
16.07.2019 12:00:00 25,6 12,1 29,1 20,2 18,7 10 5 20 11 NW 1017,0 17 60 0,0
16.07.2019 11:00:00 23,3 12,6 24,9 20,3 18,7 9 5 16 9 W 1017,2 41 47 0,0
16.07.2019 10:00:00 21,8 12,6 18,0 20,4 18,7 5 3 13 7 S 1017,4 35 60 0,0
16.07.2019 09:00:00 18,7 12,4 13,4 20,5 18,7 5 3 8 4 NW 1017,4 33 60 0,0
16.07.2019 08:00:00 16,9 12,4 9,3 20,6 18,7 0 0 6 3 N 1017,3 32 57 0,0
16.07.2019 07:00:00 12,7 10,6 8,4 20,7 18,7 3 1 4 2 ENE 1017,1 25 7 0,0
16.07.2019 06:00:00 12,5 9,7 8,8 20,8 18,7 0 0 6 3 N 1016,9 28 0 0,0
16.07.2019 05:00:00 13,5 10,5 9,4 20,9 18,7 0 0 7 4 N 1016,6 36 0 0,0
16.07.2019 04:00:00 14,6 10,6 10,5 21,0 18,7 6 3 7 4 NW 1016,8 36 0 0,0
16.07.2019 03:00:00 15,2 11,2 11,3 21,1 18,6 5 3 9 5 W 1017,0 43 0 0,0
16.07.2019 02:00:00 16,9 11,2 11,5 21,2 18,7 2 1 5 3 NW 1017,1 43 0 0,0
16.07.2019 01:00:00 18,0 10,8 12,4 21,3 18,7 4 2 9 5 W 1017,3 47 0 0,0
16.07.2019 00:00:00 20,2 10,6 13,5 21,3 18,7 6 4 8 5 W 1016,9 46 0 0,0
15.07.2019 23:00:00 21,4 10,2 14,4 21,3 18,7 5 3 12 6 W 1016,6 53 0 0,0
15.07.2019 22:00:00 23,4 9,8 17,1 21,3 18,7 8 4 16 9 W 1015,8 0,6 14 0,0
15.07.2019 21:00:00 26,1 9,9 23,3 21,3 18,6 12 6 22 12 WNW 1015,3 58 60 0,0
15.07.2019 20:00:00 27,9 9,2 26,5 21,2 18,6 16 9 27 14 NW 1015,0 60 60 0,0
15.07.2019 19:00:00 28,7 8,4 30,7 21,1 18,6 16 9 42 23 NNW 1014,8 19 60 0,0
15.07.2019 18:00:00 28,9 6,9 33,0 21,0 18,6 17 9 40 22 NW 1014,6 38 60 0,0
15.07.2019 17:00:00 29,2 7,7 37,7 20,9 18,6 19 10 36 19 NNW 1014,7 40 60 0,0

tt = Température de l'air
td = dewpoint
tt 5cm = Température de l'air 5cm
tt -20cm = Température de l'air -20cm
tt -100cm = Température de l'air -100cm
ff = Vitesse du vent
fx = gusts
dd = Direction du vent
ppp = reduced air pressure
vv = visibility
sd = Ensoleillement
rr = Quantités de précipitations

stations d'obs. à proximité